Flag for U.S.A. Weather past 2 weeks in Olympia, Washington, U.S.A.

Now
61 °F

Overcast.


Feels Like: 61 °F
Forecast: 44 / 61 °F
Wind: 10 mph from Southwest

Location: Olympia Airport

Current Time: Mar 29, 2015 at 3:31:55 PM

Latest Report: Mar 29, 2015 at 2:54 PM


Visibility: 10 mi

Pressure: 30.21 "Hg

Humidity: 54%

Dew point: 44 °F

Location of OlympiaLocation

Historic Weather in Olympia — Graph

°F

Olympia temperature yesterday

Maximum temperature yesterday: 57 °F (at 2:54 PM)
Minimum temperature yesterday: 47 °F (at 10:54 PM)
Average temperature yesterday: 52 °F

Past Weeks' High & Low Weather Summary

 TemperatureHumidityPressure
High72 °F (Mar 26, 5:54 PM)100% (Mar 16, 4:54 AM)30.35 "Hg (Mar 16, 4:54 AM)
Low34 °F (Mar 17, 3:54 AM)41% (Mar 18, 5:54 PM)29.60 "Hg (Mar 15, 3:54 PM)
Average49 °F84%30.09 "Hg
* Reported Mar 14 1:01 PM — Mar 29 1:54 PM, Olympia, Weather by CustomWeather, © 2015

Note: Actual official high and low records may vary slightly from our data, if they occured in-between our weather recording intervals... More about our weather records

Advertising

Olympia weather history for previous 24 hours

 ConditionsComfort  
Time TempWeatherWind HumidityBarometerVisibility
1:54 PM
Sun, Mar 29
60 °FMore clouds than sun.8 mph53%30.23 "Hg10 mi
12:54 PM59 °FMore clouds than sun.8 mph56%30.24 "Hg10 mi
11:54 AM58 °FOvercast.9 mph58%30.25 "Hg10 mi
10:54 AM54 °FPassing clouds.8 mph74%30.26 "Hg10 mi
9:54 AM51 °FScattered clouds.7 mph77%30.28 "Hg10 mi
8:54 AM48 °FPassing clouds.6 mph86%30.27 "Hg10 mi
7:54 AM46 °FClear.7 mph86%30.28 "Hg10 mi
6:54 AM46 °FPassing clouds.8 mph83%30.27 "Hg10 mi
5:54 AM43 °FPassing clouds.6 mph89%30.26 "Hg10 mi
4:54 AM46 °FOvercast.No wind86%30.28 "Hg10 mi
3:54 AM46 °FPassing clouds.3 mph86%30.28 "Hg10 mi
2:54 AM45 °FPassing clouds.No wind90%30.30 "Hg10 mi
1:54 AM47 °FPassing clouds.No wind86%30.32 "Hg10 mi
12:54 AM47 °FPassing clouds.No wind86%30.33 "Hg10 mi
11:54 PM
Sat, Mar 28
47 °FMostly cloudy.No wind86%30.35 "Hg10 mi
10:54 PM47 °FOvercast.No wind83%30.35 "Hg10 mi
9:54 PM48 °FMostly cloudy.No wind80%30.34 "Hg10 mi
8:54 PM51 °FOvercast.5 mph71%30.34 "Hg10 mi
7:54 PM53 °FMostly cloudy.No wind66%30.34 "Hg10 mi
6:54 PM55 °FMostly cloudy.7 mph59%30.34 "Hg10 mi
5:54 PM56 °FPartly sunny.8 mph62%30.34 "Hg10 mi
4:54 PM57 °FOvercast.12 mph60%30.34 "Hg10 mi
3:54 PM57 °FMostly cloudy.10 mph62%30.34 "Hg10 mi
Weather by CustomWeather, © 2015

See weather overviewHow to use our weather pages